Aérodrome :
LOGIN :

S'inscrire | Disclaimer

   EN    FR    IT 

 










Légende :    VFR   VFR Marginal   IFR   IFR Intensif   IFR Très Intensif
Visi : 
Plafond : 
>= 8 km
>= 3000ft
5 à 8 km
1000 à 3000 ft
1500m à 5 km
500 à 1000 ft
800 à 1500m
200 à 500 ft
< 800m
< 200 ft
Symboles :   Orages  Brouillard  Fortes neiges  Fortes précipitations  Vent > 20 kt
SIGMETs :   Divers  Orages  Givrage  Turbulence  Onde Orograph.  Cendres Volcan.







- Altitude de l'aérodrome : 392 ft
- Code IATA : CDG
- Voir les cartes d'approche


LFPG - Paris-Aeroport Charles De Gaulle

DERNIER METAR :
  • 151400Z 17012KT 110V200 CAVOK 26/06 Q1010 NOSIG

METARs EXPIRÉS :
  • 151330Z 17015KT CAVOK 26/06 Q1010 NOSIG
  • 151300Z 19016KT CAVOK 26/07 Q1011 NOSIG
  • 151230Z 18013KT 110V210 CAVOK 26/07 Q1011 NOSIG
  • 151200Z 18013KT 100V220 CAVOK 25/08 Q1011 NOSIG
  • 151130Z 20013KT 120V220 CAVOK 25/08 Q1011 NOSIG

TAF AMD TAF LFPG
Valide du 15 à 12h jusqu'au 16 à 18h UTC


151221Z 1512/1618 18010KT CAVOK TX27/1515Z TN15/1605Z
TEMPO 1512/1515 19015G25KT
BECMG 1516/1518 10005KT
ATIS : +33 1 48 62 10 92
Pas de NOTAMs connus pour ce terrain.



MET'MAP, la Météo Aéronautique d'un coup d'oeil ! - Copyright ORBIFLY Décembre 2007 - Disclaimer

ORBIFLY MET'MAP TEAM :

Programmation & Développement : Alexandra Zaïnal
Conception & Développement : Baudouin d'Aumeries
Co-Programmation & Développement : Marc-Olivier Méhu
Soutien technique & logistique : Manuel Goepfert

Contact : metmap@orbifly.com




SOURCES & CREDITS :

   NOAA